Theta_e
274 274 273 273 273 272 272 272 272 272 271 271 270 271 271 272 271 271 271 271 271 270 270 269 269 269 270 270 269 268 268 268 269 267 265 265 265 265 264 264 264 263 263 266 267 267 267 268 269 268 269 267 267 266 267 271 267 268 266 265 266 265 270
274 273 273 272 272 272 272 271 271 271 270 270 270 269 271 271 270 270 270 270 269 269 270 269 268 268 269 269 268 268 267 267 267 266 266 266 266 265 264 266 265 264 263 263 265 266 268 267 268 265 269 266 266 266 266 266 266 265 265 265 264 265 265
274 273 273 272 272 272 271 271 270 270 270 269 269 269 269 270 270 269 269 269 269 269 269 268 268 268 268 268 267 268 267 267 267 267 266 266 266 264 264 265 265 263 262 261 263 265 264 265 266 265 266 267 266 264 265 264 264 264 263 263 264 265 264
273 273 272 272 271 271 271 270 270 270 269 269 269 269 269 269 269 269 269 269 269 268 268 267 267 267 267 267 266 267 266 267 266 266 266 265 266 265 264 264 264 264 262 261 261 264 264 266 266 266 267 266 266 265 263 263 262 262 263 264 264 264 264
273 272 272 272 271 271 270 270 270 269 269 269 269 269 269 269 269 269 269 269 269 269 268 267 267 267 267 266 265 266 265 266 265 266 265 265 265 265 265 263 264 263 263 261 261 262 263 265 265 266 266 266 263 263 262 262 263 263 263 263 264 264 265
273 273 272 272 271 271 271 270 270 269 269 268 268 268 269 269 269 268 268 268 268 267 267 267 267 266 266 265 265 265 265 265 265 265 264 264 264 265 264 263 262 262 263 262 261 261 260 263 263 263 264 265 265 263 261 262 262 261 262 262 261 263 263
273 273 272 272 271 271 271 270 270 269 269 268 268 268 267 267 267 267 266 266 266 266 266 266 266 266 266 265 265 265 264 265 264 265 264 264 264 264 264 262 262 263 261 261 260 259 260 261 263 263 262 264 265 264 263 261 260 260 261 261 262 261 263
273 273 272 272 272 271 271 270 270 269 269 268 268 267 267 267 266 266 265 265 266 266 265 265 265 265 265 265 265 265 265 265 264 264 263 264 264 263 263 262 261 261 261 259 259 259 259 260 260 262 263 264 264 262 262 262 261 259 260 261 262 263 262
274 273 272 272 271 271 271 270 270 270 269 268 267 267 267 266 266 266 265 265 265 265 265 264 264 264 265 265 265 265 265 265 265 263 262 263 263 262 262 261 261 260 260 259 259 258 260 259 260 260 261 261 262 261 261 262 262 260 261 262 262 262 263
274 273 272 272 271 271 271 271 270 271 270 270 268 267 267 266 266 265 265 264 264 264 264 263 264 264 265 265 265 265 265 265 265 265 264 263 262 262 261 261 260 260 260 259 258 258 258 258 258 259 261 261 262 264 264 263 262 260 260 260 261 261 262
273 273 273 272 271 271 271 271 271 271 274 275 273 268 267 266 266 265 265 264 263 263 263 263 263 263 264 265 265 264 264 265 265 265 264 264 264 263 262 261 260 260 260 259 259 259 259 258 258 260 262 262 263 264 263 262 261 261 261 259 258 258 259
273 273 273 272 272 271 271 271 271 273 275 276 276 271 267 266 265 265 264 264 263 263 263 262 262 263 263 263 263 263 264 264 264 264 264 264 264 264 264 264 262 260 260 260 259 258 259 259 259 260 262 262 263 263 263 262 262 261 260 259 258 259 258
272 273 273 272 271 271 271 271 271 273 276 276 276 276 269 266 265 265 264 264 263 263 263 262 262 262 262 263 264 263 263 263 263 264 264 264 264 264 264 263 264 264 262 262 260 260 259 260 261 261 262 264 263 264 261 262 261 261 260 259 259 259 258
271 272 272 272 272 271 271 271 271 273 275 276 276 277 274 267 266 265 264 264 263 263 263 263 262 262 261 262 263 263 262 262 262 262 262 262 262 262 263 263 263 263 264 263 262 261 260 261 263 261 263 264 265 263 261 261 260 260 258 258 258 259 259
271 271 271 271 271 271 271 271 271 273 275 276 276 276 275 269 266 265 264 263 263 263 263 263 263 262 262 261 261 262 261 261 261 260 261 261 261 261 261 262 262 262 262 263 263 262 261 262 263 263 263 261 262 262 262 262 261 260 259 258 257 257 257
272 271 271 271 271 270 270 271 271 272 274 275 276 276 274 271 266 265 264 263 263 262 263 263 263 263 262 262 261 262 263 262 261 260 259 259 259 260 260 260 262 263 265 263 263 262 262 262 263 265 263 262 261 259 259 260 260 258 257 258 257 257 258
271 271 271 271 270 270 270 270 270 271 272 273 275 275 273 272 267 265 263 263 263 263 263 263 263 263 263 262 261 263 263 263 262 259 259 259 259 259 259 259 261 262 265 268 269 268 268 268 268 268 269 269 269 265 261 259 258 258 259 257 256 257 257
271 271 271 270 270 270 269 269 270 270 271 273 274 273 272 272 269 265 264 263 263 263 262 263 264 264 263 263 263 264 264 264 262 259 259 258 258 258 258 259 260 261 261 264 265 267 267 267 267 267 267 269 270 268 266 261 259 260 260 258 258 257 257
270 270 270 270 269 269 269 269 269 269 269 271 274 273 272 271 269 265 264 264 263 263 262 262 263 264 263 263 263 264 265 265 263 260 260 259 259 258 258 259 261 260 260 261 261 262 264 265 266 266 265 266 266 267 267 266 263 262 261 259 259 258 258
269 269 269 269 269 268 268 268 268 268 269 270 271 273 271 271 269 264 264 264 263 262 262 262 262 263 264 264 264 264 265 266 266 262 261 260 259 258 258 261 261 261 261 261 261 261 262 262 263 264 265 265 265 265 265 265 264 263 262 260 260 259 259
268 268 268 268 268 268 268 268 267 267 268 268 269 271 270 270 269 268 265 264 264 263 262 262 262 263 264 264 264 264 265 267 268 266 262 262 260 261 262 263 261 262 263 261 261 261 261 261 261 261 262 262 262 262 262 263 263 263 263 262 260 259 259
267 267 267 267 267 267 266 266 266 266 267 267 268 269 269 269 269 269 268 266 265 265 264 264 264 264 264 265 265 265 266 268 268 268 265 263 264 264 264 263 263 262 262 261 261 260 260 260 259 259 260 260 260 260 260 261 261 261 262 262 262 260 259
267 266 266 266 266 266 265 265 265 266 265 266 267 267 268 269 269 270 269 267 266 265 264 265 265 265 266 265 266 266 267 267 267 267 267 266 265 265 265 264 263 262 261 260 260 259 259 259 259 259 259 259 259 260 260 260 260 260 260 260 260 261 261
265 265 265 264 264 265 264 263 264 265 265 265 266 266 267 267 268 269 268 267 266 266 265 265 264 264 266 266 266 266 266 266 266 266 267 267 266 266 265 264 263 261 260 260 259 259 258 258 259 259 259 259 260 260 260 260 260 260 260 259 259 259 259
264 264 264 263 263 263 262 261 262 263 264 264 264 265 266 266 267 267 268 266 266 266 265 265 265 265 265 265 266 266 266 265 265 265 265 265 265 265 264 263 262 261 260 259 259 259 259 259 259 260 260 261 261 261 261 260 260 260 260 260 260 259 258
263 263 263 262 262 262 261 259 259 260 262 263 263 264 264 265 265 265 266 266 264 265 265 265 265 264 264 264 264 263 263 262 262 263 263 263 263 262 262 262 262 261 260 259 259 259 259 259 260 260 261 261 261 260 259 259 258 258 257 257 256 255 255
262 261 261 261 261 261 261 259 258 258 259 260 261 261 262 263 263 264 264 264 263 263 263 263 262 262 262 262 262 262 261 261 261 261 261 261 261 261 261 261 260 260 260 260 259 259 259 260 260 261 260 259 259 259 259 259 258 257 256 255 254 254 253
261 261 261 260 261 260 260 260 259 258 258 259 260 260 261 261 261 262 262 262 262 261 261 261 261 261 260 260 259 259 259 259 259 259 259 259 259 259 260 260 260 260 260 259 260 259 259 259 259 258 259 259 259 259 259 259 257 257 256 256 254 252 252
260 260 261 261 260 260 259 259 259 260 262 261 261 260 259 259 260 260 261 262 262 260 260 259 258 257 257 257 257 257 257 257 257 257 258 258 258 258 258 258 258 257 258 258 258 258 258 258 258 258 258 258 258 257 257 258 257 257 256 255 255 253 253
260 261 261 260 261 261 260 260 261 264 264 263 262 262 261 261 261 261 261 261 262 261 258 257 257 257 256 256 256 256 256 256 256 256 256 257 257 258 257 257 257 257 257 258 257 257 257 257 257 257 257 257 256 256 256 257 257 255 256 254 253 253 253
262 262 262 261 260 261 263 263 263 263 263 264 263 262 262 262 261 261 261 261 260 259 257 257 256 256 257 256 257 256 256 256 256 256 256 256 257 257 257 257 257 257 257 257 257 257 257 257 256 256 256 256 256 255 255 255 256 255 255 254 253 253 252
262 262 262 262 262 261 260 262 262 262 263 263 263 262 262 262 262 261 261 261 261 257 256 256 256 256 256 256 256 256 257 256 256 257 256 256 256 256 257 257 257 258 258 257 257 256 256 256 256 256 256 256 255 255 254 254 254 254 254 254 254 253 253
262 262 262 262 262 262 262 261 262 262 262 262 262 262 262 262 262 261 261 261 258 256 256 256 256 256 256 256 256 256 256 256 257 257 257 257 257 257 257 257 258 258 258 257 257 256 256 256 256 255 255 255 255 254 253 253 253 253 254 253 253 252 252
262 262 261 261 261 261 261 261 261 261 261 261 262 262 262 261 260 261 261 259 256 256 255 256 255 256 256 256 257 257 257 257 257 257 257 257 257 258 258 258 258 257 257 257 257 256 256 255 255 255 254 254 254 254 253 253 253 253 253 252 252 252 252
257 260 261 259 259 260 260 260 260 260 260 260 260 260 261 261 258 257 258 258 257 256 256 255 256 256 256 256 256 257 257 257 257 257 257 257 257 258 258 258 258 257 257 256 256 256 255 255 255 254 254 254 253 253 252 252 252 253 253 252 252 252 251
256 257 259 259 259 260 259 259 259 259 259 260 260 260 260 257 256 256 256 256 257 256 256 256 256 256 256 257 257 257 257 258 257 258 258 258 258 257 257 257 257 257 256 256 256 255 255 255 254 254 254 253 253 252 252 252 252 252 252 252 252 252 252
Wind_Speed
10 11 11 11 11 12 11 12 11 11 11 11 11 11 10 9 11 12 10 9 9 9 10 11 11 10 8 7 9 7 7 7 6 5 5 4 5 6 4 6 6 8 6 4 1 1 3 5 7 5 7 6 5 4 4 6 5 5 4 4 4 5 11
9 9 10 11 12 12 12 11 12 11 10 12 12 12 9 10 11 12 11 10 11 11 10 10 11 11 10 8 10 8 9 7 7 6 6 6 6 6 6 5 7 6 6 9 2 2 1 2 3 4 4 7 6 5 4 5 4 4 4 4 4 4 6
9 9 10 11 11 11 11 12 11 11 11 12 12 13 12 11 12 13 13 13 13 12 11 11 11 11 10 7 10 9 8 8 8 7 8 7 6 7 6 6 6 6 7 7 7 3 3 3 2 2 3 3 4 4 4 4 4 4 3 3 4 5 5
9 9 11 11 11 11 10 11 11 10 11 13 12 13 13 12 12 13 13 14 12 12 12 13 11 12 12 10 11 10 9 8 9 9 8 8 6 7 7 7 6 6 6 5 6 4 5 3 3 3 3 3 2 3 3 3 3 3 5 5 6 6 6
7 9 10 11 11 11 11 11 11 12 11 11 11 12 12 12 12 12 13 13 12 11 13 13 14 13 13 12 12 10 10 9 12 10 9 9 7 7 6 5 6 7 5 5 7 5 2 1 2 2 2 3 3 3 3 4 5 6 6 6 7 6 7
8 9 11 10 11 11 11 11 11 12 12 12 12 12 12 11 11 12 12 11 10 11 12 13 13 13 13 14 15 13 12 11 13 10 10 10 9 7 6 6 5 6 6 6 7 5 6 4 4 3 5 4 5 5 5 5 5 4 6 6 6 7 7
8 8 9 11 10 11 11 11 12 12 11 12 12 12 12 11 10 10 10 10 11 10 11 12 12 13 13 15 15 14 14 13 13 12 12 11 11 9 8 7 7 6 7 7 6 5 6 7 6 4 5 4 5 5 6 6 4 5 4 5 7 7 6
9 8 8 10 10 10 10 10 10 11 11 12 12 12 12 12 12 11 11 11 11 11 12 12 12 13 13 14 14 15 14 13 14 11 12 9 8 9 9 8 7 7 7 7 7 7 7 7 7 5 5 5 5 6 6 6 6 8 6 6 6 8 7
8 9 9 8 10 10 9 10 11 10 11 11 12 11 12 12 12 12 12 12 12 12 12 11 11 12 12 12 12 12 11 12 12 13 12 10 10 10 9 8 8 8 7 7 7 7 6 6 6 7 5 5 7 9 9 4 6 7 6 6 5 4 4
9 10 11 10 10 10 10 11 9 12 17 16 12 12 12 11 12 13 12 12 12 12 12 11 11 11 13 14 16 15 15 16 16 14 13 13 12 12 10 10 10 9 8 8 9 9 8 8 9 9 9 9 9 6 4 5 6 6 4 4 4 4 5
10 10 10 11 11 12 11 11 10 16 19 23 22 15 12 13 12 12 13 12 13 13 12 11 11 10 12 14 15 15 17 16 17 17 16 16 15 14 14 12 11 10 10 10 10 8 8 10 10 10 9 10 8 7 7 7 5 6 4 6 5 7 2
10 10 11 10 11 12 12 11 13 18 22 24 25 21 14 12 12 12 12 12 13 11 11 11 11 11 10 12 14 14 15 16 17 17 17 17 17 19 18 16 14 12 11 11 10 10 11 9 11 10 9 9 8 8 6 6 6 6 7 6 6 6 6
10 12 11 11 12 12 12 11 14 18 23 24 25 26 19 11 12 12 13 12 13 12 12 11 11 11 11 10 16 14 13 13 14 16 19 18 18 18 20 19 20 17 13 10 11 11 11 12 10 10 10 9 9 5 7 6 7 6 6 6 7 8 5
11 11 11 11 12 12 12 13 13 18 23 24 25 26 21 14 14 13 12 13 13 12 12 12 12 12 12 12 13 12 13 13 13 12 13 14 13 12 15 20 23 22 20 15 12 11 13 11 9 11 8 7 6 8 9 7 8 5 5 5 8 4 5
10 11 11 11 11 11 12 12 13 17 23 24 25 26 22 12 13 11 11 11 12 12 12 13 13 12 12 12 10 9 14 15 15 12 13 13 13 13 12 13 14 14 14 14 14 13 13 10 10 11 7 5 5 8 7 7 6 6 5 4 3 3 3
9 10 11 11 11 12 13 11 13 17 22 25 25 28 17 11 12 12 11 11 11 11 11 11 12 12 12 11 9 14 21 16 11 10 12 9 12 12 12 13 12 16 18 15 13 12 12 10 10 12 8 8 7 5 3 2 1 0 2 4 6 9 5
9 9 10 11 11 12 13 11 13 16 20 24 27 23 14 12 9 10 12 11 10 11 11 11 12 12 10 12 13 17 22 22 18 10 14 11 13 12 8 10 10 17 25 27 28 25 24 23 24 24 23 21 21 12 6 5 4 9 6 7 9 10 7
10 9 9 10 11 11 12 12 11 15 19 24 26 23 15 12 10 11 11 10 10 9 9 11 17 14 12 12 11 19 24 24 20 12 15 10 13 16 10 10 10 9 14 22 24 25 25 25 24 24 25 25 24 22 15 10 12 9 6 10 9 11 7
9 10 9 8 10 11 13 12 11 14 18 23 26 22 14 12 9 9 10 10 10 10 10 10 14 20 15 13 13 20 24 26 23 14 18 13 13 13 15 12 11 13 10 9 11 13 14 15 18 17 15 14 22 21 18 13 11 9 10 11 10 9 7
9 11 10 8 8 9 10 11 11 10 17 21 25 28 16 11 11 9 9 10 10 10 10 11 11 15 22 21 20 22 24 25 26 19 16 12 10 13 15 11 12 12 9 10 10 11 11 12 10 10 10 10 10 12 13 13 9 8 9 10 10 10 10
10 10 11 9 8 8 9 9 10 10 15 19 23 26 24 13 13 10 8 9 9 10 11 11 11 10 18 25 24 24 25 26 27 21 16 16 14 14 12 10 10 11 15 10 10 9 9 9 8 9 9 9 9 9 9 10 10 10 10 10 11 11 11
10 10 10 9 8 7 8 8 11 10 12 17 21 24 28 17 14 11 9 10 10 11 11 12 10 11 16 25 25 24 24 26 24 25 12 15 17 17 18 12 10 8 8 8 8 8 8 8 8 9 9 10 10 10 11 11 11 11 11 11 11 12 12
10 10 10 10 8 6 7 7 7 12 11 15 19 23 24 26 18 13 11 11 10 9 8 9 10 11 16 21 24 23 23 22 23 20 13 17 21 19 19 14 8 8 8 8 8 8 9 9 9 9 10 10 10 10 10 10 10 10 11 12 12 12 12
8 8 9 10 9 7 6 5 6 9 15 13 18 20 24 25 26 21 10 9 9 8 7 8 9 9 15 18 20 22 21 21 18 11 12 13 15 17 17 11 8 8 9 9 9 9 9 10 10 9 10 10 9 9 10 10 10 11 11 11 9 9 10
8 8 9 8 9 8 6 5 5 7 9 15 15 18 21 23 24 23 17 8 7 6 7 9 14 16 15 16 17 18 17 14 13 13 12 11 10 10 6 7 8 9 9 10 11 10 10 10 10 10 9 7 8 8 8 9 8 9 9 9 9 8 6
8 8 8 9 8 7 6 4 4 5 6 7 10 11 16 19 20 18 19 10 4 7 10 13 14 15 14 13 11 9 8 6 7 9 12 12 12 7 7 7 7 8 10 11 10 10 11 10 8 8 8 7 7 7 8 8 8 7 7 6 6 5 6
8 8 8 9 8 8 7 5 4 4 4 5 5 7 9 11 11 14 14 10 3 4 6 9 9 7 8 8 11 9 6 7 7 6 8 7 7 7 7 8 8 9 9 9 8 9 9 8 7 6 6 7 7 8 7 6 7 6 6 6 5 6 8
9 9 8 8 7 7 6 6 5 4 5 6 7 7 7 7 7 8 8 9 5 4 5 6 7 9 6 6 5 5 4 4 5 6 7 7 7 8 8 9 10 9 8 8 8 8 7 6 6 8 8 7 8 8 8 7 7 7 7 6 5 5 9
10 10 9 9 8 8 7 6 6 6 7 8 10 9 7 7 8 8 8 9 10 6 4 5 5 6 6 6 6 6 7 7 7 7 8 9 8 8 8 8 8 10 11 10 9 10 9 9 8 8 8 8 8 8 7 6 6 6 7 6 6 10 8
10 11 10 9 8 7 8 7 6 9 11 11 13 14 14 12 12 12 9 8 14 9 6 6 6 6 6 6 6 7 8 8 8 8 8 8 9 9 8 9 9 10 9 9 10 9 9 9 8 8 8 7 8 7 6 6 7 7 6 7 9 10 10
18 20 18 12 9 8 14 17 14 10 11 12 11 13 15 16 15 15 15 13 9 8 6 6 6 6 6 7 7 8 8 7 7 8 8 8 8 9 10 10 9 10 9 9 10 9 9 8 9 9 8 8 8 7 6 5 6 7 7 9 9 10 9
15 16 16 16 13 10 6 9 8 9 10 9 10 12 13 13 12 14 15 16 14 7 6 6 7 7 8 7 8 8 7 7 7 7 7 7 8 9 9 10 10 9 9 9 9 9 9 9 9 9 9 8 8 7 7 7 8 8 9 9 9 10 9
14 14 13 13 12 12 10 10 9 7 8 9 9 9 9 10 10 9 11 13 8 6 6 6 7 7 7 7 7 6 6 6 7 7 8 8 8 8 8 9 10 9 9 9 9 8 9 8 8 8 8 8 8 8 9 8 9 8 8 9 9 10 9
11 11 10 11 11 11 10 8 7 6 5 6 5 5 5 6 4 8 10 10 6 6 6 5 6 6 6 5 5 5 6 7 7 8 8 8 8 8 7 8 7 9 9 8 8 9 8 8 8 8 8 8 8 8 7 8 8 8 9 10 10 10 9
7 6 5 6 7 9 10 9 7 5 5 5 5 5 5 6 4 5 6 7 5 5 5 6 6 6 6 6 7 7 7 8 8 8 8 8 8 8 7 7 7 8 8 9 8 8 8 8 8 8 8 8 8 8 8 9 8 9 9 10 9 9 8
6 6 5 7 8 11 10 9 8 7 6 6 6 7 8 5 5 5 5 6 6 7 7 6 6 6 6 6 7 7 8 8 8 8 8 8 7 8 7 7 7 7 8 8 8 8 9 8 8 8 8 7 8 9 10 8 9 9 9 9 9 8 8
Wind_Direction
195 194 195 194 196 197 197 198 198 195 197 202 207 208 206 197 193 195 199 189 188 184 183 188 187 191 185 165 168 172 169 173 174 171 174 175 167 191 196 172 187 202 220 275 126 141 157 161 159 194 183 198 199 206 216 222 209 215 224 239 244 251 265
194 195 193 197 201 201 201 199 199 195 195 203 205 209 203 201 196 199 197 190 194 188 189 183 183 190 185 176 173 170 176 173 173 177 177 188 178 189 197 191 182 211 189 230 237 181 197 168 188 179 189 185 201 215 197 216 219 203 203 218 234 252 263
192 193 195 202 204 202 203 201 200 197 198 205 205 206 207 202 197 198 197 197 198 189 185 184 188 189 181 173 176 179 177 173 180 179 186 188 182 188 195 196 194 180 210 214 243 193 221 211 261 183 228 213 207 203 194 202 210 208 224 228 237 253 260
193 194 199 204 206 204 203 202 201 199 202 205 205 208 209 206 203 203 203 203 197 190 188 189 184 191 182 180 181 182 176 180 178 183 184 187 192 188 193 192 186 201 197 209 219 251 204 212 204 236 212 204 213 193 213 203 221 226 233 239 241 242 250
192 198 201 206 206 205 204 203 201 202 204 205 207 210 211 209 206 206 207 205 201 192 191 191 194 186 182 183 184 184 182 180 182 183 183 188 190 188 193 182 188 199 192 200 218 241 252 211 250 237 252 252 258 267 245 236 230 225 229 234 235 237 244
199 200 207 208 207 207 207 201 201 203 203 203 205 210 213 211 207 207 207 207 203 197 197 197 196 190 186 187 188 189 184 184 177 178 183 185 191 185 186 188 187 184 203 208 226 219 258 257 234 237 240 230 227 222 240 246 242 238 227 227 242 237 237
207 210 208 213 207 210 205 202 200 201 200 202 204 207 209 210 208 206 205 207 205 201 200 201 199 194 192 193 194 190 187 184 179 184 184 187 186 185 181 190 196 192 197 210 218 230 232 254 256 244 261 235 234 224 217 232 252 251 231 224 219 246 236
214 217 212 215 212 214 207 206 204 203 201 201 200 202 206 206 205 203 204 204 205 203 202 201 200 199 198 197 196 195 191 184 181 183 188 185 178 183 185 192 193 199 202 206 213 220 225 231 252 259 249 255 245 244 239 220 221 251 246 236 226 221 228
218 217 219 217 217 216 212 211 209 203 200 199 203 202 206 206 205 204 204 205 206 206 204 202 201 202 201 198 197 195 188 192 183 182 186 188 178 185 187 193 192 198 201 208 212 228 218 228 233 241 247 234 222 229 234 196 203 231 233 238 240 246 221
229 224 222 219 217 214 214 217 214 209 203 200 197 199 204 205 208 205 206 204 204 207 206 202 199 201 194 192 191 191 190 191 192 194 191 186 183 190 190 194 195 199 201 203 213 216 208 220 228 227 227 237 238 237 238 215 208 223 211 220 247 255 233
237 234 230 227 223 221 219 217 215 209 207 208 202 197 201 202 206 206 207 207 203 204 201 201 199 199 193 189 191 193 192 192 194 193 195 196 193 190 189 190 197 206 199 206 214 215 210 218 229 227 224 233 235 232 225 226 216 226 210 221 235 261 298
241 240 237 234 232 230 226 224 218 211 215 212 209 200 201 203 205 203 207 206 205 204 198 197 196 198 196 197 195 193 195 197 197 196 197 197 199 198 200 197 194 197 204 208 213 215 216 213 223 227 220 229 220 226 225 220 211 209 205 219 226 238 234
242 241 237 233 236 236 232 232 221 216 219 217 215 210 199 207 204 204 207 204 204 201 198 194 194 197 198 197 190 192 196 195 199 200 201 204 205 202 202 207 210 209 208 203 216 219 222 212 217 224 224 216 221 200 217 216 220 212 213 208 227 235 228
246 245 241 237 238 240 237 233 223 215 221 221 218 217 209 204 206 209 207 204 202 201 199 195 193 195 183 176 190 192 169 168 189 195 203 209 211 212 208 209 214 217 217 216 220 220 227 222 208 227 220 219 200 202 217 210 227 196 210 210 229 216 213
249 247 245 243 240 244 244 239 227 217 221 223 222 222 220 204 207 209 211 206 203 203 199 197 198 197 195 187 176 186 180 181 172 172 196 207 211 211 214 214 214 214 216 222 225 226 231 228 227 236 228 208 206 208 217 205 213 202 211 232 268 288 231
251 250 247 241 240 242 247 244 227 220 222 223 223 228 227 213 199 207 208 206 205 202 202 200 199 197 194 187 172 188 189 189 169 180 196 192 208 214 216 221 218 218 222 223 225 225 226 226 227 233 227 216 215 201 192 190 185 188 244 265 263 258 239
256 252 249 246 239 239 245 246 233 223 222 224 226 228 228 220 196 205 206 207 201 201 201 200 198 198 193 192 193 192 192 194 188 182 196 196 206 209 206 220 214 224 232 234 234 233 233 234 235 237 237 234 230 216 188 188 220 236 212 235 252 253 234
266 259 251 248 247 238 244 246 232 223 224 226 228 230 227 227 211 201 202 203 197 197 200 200 197 195 198 196 194 191 196 195 192 185 193 183 198 212 210 217 216 223 230 236 241 242 237 234 235 236 238 240 239 234 208 191 222 218 194 232 230 251 232
271 269 260 253 251 244 241 247 241 224 223 224 230 232 231 230 222 207 203 193 197 196 195 200 199 197 197 200 199 196 200 201 197 188 199 184 195 206 216 215 205 218 217 211 218 232 238 239 234 232 233 234 238 240 239 226 219 203 209 226 229 238 250
272 273 270 263 252 250 242 246 246 230 226 221 226 231 232 231 225 210 199 195 193 191 198 196 199 202 202 201 202 204 208 209 203 197 198 189 195 207 217 208 210 216 205 213 210 218 219 230 232 234 231 230 226 229 229 235 227 207 211 223 230 228 224
274 272 272 267 258 252 247 239 241 236 227 222 223 229 233 232 233 221 186 194 191 194 196 195 197 199 201 203 206 207 209 214 214 207 196 200 208 209 213 203 212 213 210 211 212 214 215 219 221 229 235 236 234 234 235 235 233 226 218 220 227 230 234
280 277 275 273 261 257 254 240 232 238 231 221 220 226 231 235 235 227 209 201 200 201 199 199 190 194 198 203 206 207 208 214 219 216 195 203 205 206 207 206 204 199 200 206 206 212 215 215 215 222 226 230 231 234 236 236 237 235 233 231 228 228 235
285 281 279 277 268 260 253 242 234 229 231 227 222 223 228 232 236 228 219 216 211 199 191 186 189 190 191 198 203 206 209 215 220 223 216 195 203 208 207 202 192 183 190 199 204 207 216 214 216 220 222 221 223 225 226 229 229 230 231 236 237 236 237
289 284 281 280 279 271 255 238 231 230 228 231 229 226 229 233 235 236 227 221 215 202 178 177 173 177 176 191 197 204 208 213 217 218 219 209 202 203 206 207 198 191 196 200 206 212 215 217 218 221 225 221 219 219 216 219 221 223 223 226 229 232 238
294 288 285 283 280 281 265 233 233 234 234 232 234 233 233 235 237 238 238 228 226 193 189 176 176 173 173 187 195 199 205 211 215 220 228 235 239 238 229 207 196 200 198 208 213 215 219 221 219 220 224 218 215 214 209 212 219 220 221 221 223 228 227
295 291 289 288 284 285 275 243 225 240 243 244 243 243 240 237 238 239 243 243 221 201 177 168 163 161 169 180 186 189 189 181 191 208 220 226 225 222 220 218 214 207 206 216 215 216 220 222 220 221 218 211 202 202 208 198 205 197 214 199 211 225 244
300 296 292 288 289 285 282 261 233 229 230 231 233 235 235 238 239 238 239 238 196 173 151 141 139 142 147 149 169 165 163 166 186 196 217 220 222 219 217 219 220 219 221 221 219 222 223 221 219 217 213 214 207 215 209 196 199 198 200 179 202 214 240
309 307 305 303 299 295 286 276 254 222 214 223 222 231 230 233 234 230 223 222 191 162 155 142 144 141 137 142 151 166 175 192 197 202 206 214 216 220 220 220 224 231 234 234 229 235 231 228 214 216 218 216 218 221 214 199 197 205 215 192 178 211 239
307 301 299 297 300 299 291 283 273 246 226 225 224 220 223 220 225 223 222 218 198 162 151 131 141 136 149 159 175 188 197 203 204 213 212 212 214 213 213 213 210 216 221 221 221 227 224 226 221 226 219 218 218 215 203 194 198 210 201 216 205 230 235
298 298 297 293 287 288 289 292 284 300 292 246 222 218 217 221 220 220 216 210 198 182 176 178 176 181 177 186 195 210 214 210 210 213 213 212 211 210 210 211 213 216 219 215 220 223 220 222 218 226 217 216 219 218 202 199 193 212 201 207 222 234 237
294 301 302 296 293 287 287 293 300 298 291 280 242 229 228 229 226 218 212 202 184 197 188 192 185 199 195 206 209 217 220 212 210 212 209 211 206 212 213 213 213 214 211 214 218 218 217 218 217 223 217 218 218 214 212 204 214 206 211 218 222 232 238
293 301 303 303 297 295 285 288 284 283 288 274 241 230 232 231 224 218 208 203 188 185 195 195 199 201 210 208 212 222 217 213 213 213 212 210 210 214 211 212 219 211 207 213 211 213 214 213 214 218 218 220 218 211 212 209 212 212 216 226 229 233 234
276 285 303 302 304 303 303 298 294 287 283 283 269 247 238 236 231 215 196 189 185 183 196 194 207 209 213 210 218 215 212 218 214 217 218 218 219 220 213 213 217 207 213 210 209 208 213 210 212 213 215 217 214 210 216 210 213 216 219 223 229 236 232
302 290 283 297 297 296 293 294 294 295 289 287 287 267 231 211 214 201 190 187 190 189 208 203 207 217 219 223 218 215 212 219 221 221 225 226 228 228 226 218 202 204 213 210 209 210 211 207 210 208 211 214 213 215 210 211 212 210 216 223 224 231 232
308 310 287 281 293 297 296 289 285 275 254 247 248 245 227 204 186 202 202 202 202 209 209 213 214 215 216 216 223 225 222 224 223 223 223 225 228 228 223 219 210 210 208 210 210 212 215 212 209 208 207 208 209 209 214 214 213 216 217 223 227 228 233
300 302 297 277 283 286 286 290 292 282 266 251 232 221 216 203 203 207 216 213 211 211 219 217 219 218 223 221 226 224 228 227 229 228 226 225 222 224 218 215 215 211 208 208 208 212 211 211 214 208 205 203 208 211 214 214 215 220 223 226 228 228 231